[[[{"header":{"parameterUnit":"kt","parameterCategory":2,"dx":1,"dy":1,"la1":30.253999710083008,"la2":30.299108505249023,"lo1":-89.0895004272461,"lo2":-89.04439544677734,"nx":28,"ny":28,"refTime":"2022-09-27T15:00:00:Z","depth":"0","parameterNumber":2,"parameterNumberName":"U-component_of_CURRENTS"},"data":[0.289,0.2921,0.2969,0.2979,0.3029,0.3,0.3022,0.3077,0.3245,0.3512,0.3805,0.4086,0.4616,0.5169,0.5225,0.5135,0.4713,0.4786,0.4541,0.479,0.4782,0.4775,0.4729,0.4839,0.4839,0.4145,0.414,0.4136,0.2937,0.3001,0.3078,0.3153,0.3177,0.3264,0.3367,0.3364,0.3466,0.3762,0.3964,0.4414,0.4687,0.4943,0.518,0.5093,0.4914,0.5004,0.4828,0.464,0.4971,0.4939,0.5096,0.5096,0.5096,0.5096,0.5096,0.5096,0.305,0.3074,0.318,0.3245,0.3322,0.3388,0.3395,0.3554,0.3691,0.3881,0.4146,0.4367,0.4743,0.5018,0.5042,0.5124,0.4958,0.5012,0.4941,0.485,0.4637,0.4959,0.5153,0.5153,0.5153,0.5152,0.5152,0,0.3125,0.3179,0.325,0.334,0.3403,0.3472,0.3583,0.3651,0.3846,0.3977,0.4216,0.4371,0.469,0.4857,0.5013,0.5035,0.4797,0.4959,0.4887,0.4725,0.4615,0.442,0.468,0.4873,0.4871,0.4869,0.4868,0.4867,0.321,0.3243,0.3377,0.3419,0.3469,0.3549,0.3606,0.3756,0.3845,0.4093,0.4159,0.4377,0.4523,0.4751,0.4828,0.4913,0.4724,0.4913,0.4785,0.4714,0.4638,0.4532,0.4354,0.4847,0.485,0.4852,0.4853,0,0.3251,0.3339,0.3406,0.3531,0.3566,0.3609,0.3737,0.3801,0.3928,0.4045,0.4084,0.427,0.4427,0.449,0.459,0.458,0.4595,0.4672,0.467,0.4678,0.4657,0.4583,0.4658,0.4471,0.4782,0.4785,0.4787,0,0.3329,0.3372,0.3493,0.3525,0.359,0.3678,0.3749,0.3828,0.3949,0.4029,0.4095,0.4187,0.424,0.4341,0.4337,0.4453,0.4456,0.4427,0.4438,0.4425,0.4428,0.4365,0.4286,0.4377,0.4376,0.4375,0.4374,0,0.3343,0.3448,0.3509,0.3541,0.3653,0.3692,0.3751,0.3844,0.3903,0.4005,0.4059,0.4131,0.4186,0.422,0.4262,0.42,0.4382,0.4295,0.4371,0.4375,0.4382,0.4382,0.4497,0.4372,0.4372,0.4371,0.4371,0,0.3388,0.345,0.3522,0.362,0.3641,0.3679,0.3775,0.3824,0.3913,0.3944,0.4,0.4006,0.4078,0.4019,0.4124,0.4076,0.4093,0.4104,0.411,0.4134,0.4088,0.4231,0.4394,0.433,0.4152,0.415,0.4149,0,0.3386,0.3466,0.351,0.3576,0.3617,0.3666,0.3713,0.3765,0.3804,0.3859,0.3874,0.3904,0.3864,0.388,0.3922,0.3942,0.3999,0.3915,0.3991,0.3994,0.4048,0.4195,0.4207,0.4355,0.4122,0.4125,0.4127,0,0.3373,0.3473,0.3478,0.3516,0.3577,0.3602,0.3656,0.3708,0.3751,0.3763,0.3816,0.3819,0.3819,0.3813,0.3796,0.3837,0.3954,0.3806,0.3806,0.3877,0.4088,0.415,0.4174,0.3942,0.3945,0.3947,0.4106,0,0.3425,0.3455,0.3472,0.3525,0.3551,0.358,0.3611,0.3639,0.3646,0.3657,0.3695,0.3674,0.3684,0.3689,0.3659,0.3737,0.373,0.3694,0.3657,0.3735,0.3792,0.3809,0.3575,0.3573,0.3571,0.357,0,0,0.3396,0.3431,0.3449,0.3484,0.3505,0.3519,0.355,0.356,0.3566,0.3581,0.356,0.3567,0.3544,0.3583,0.3605,0.3584,0.361,0.3572,0.3685,0.3698,0.371,0.3769,0.3787,0.3567,0.3566,0.3565,0.3565,0,0.3413,0.342,0.3442,0.3465,0.3496,0.3504,0.3518,0.3529,0.3532,0.3543,0.3519,0.3532,0.3503,0.3507,0.3501,0.3557,0.3545,0.3552,0.3616,0.3668,0.3683,0.3697,0.3758,0.3776,0.356,0.3561,0.3561,0,0.3409,0.3427,0.3431,0.3456,0.3463,0.3489,0.3469,0.3488,0.3507,0.3453,0.3462,0.3447,0.3417,0.3433,0.3435,0.3412,0.3492,0.3436,0.3445,0.3441,0.3491,0.3509,0.3524,0.3328,0.3327,0.3327,0,0,0.342,0.3436,0.3452,0.3457,0.3469,0.3468,0.3471,0.3473,0.3466,0.346,0.3437,0.3415,0.3408,0.3403,0.3383,0.339,0.3396,0.3412,0.3423,0.3432,0.3434,0.3486,0.3503,0.3325,0.3325,0.3325,0,0,0.3419,0.3441,0.3441,0.3447,0.3463,0.3458,0.3462,0.3459,0.3446,0.3443,0.3403,0.3394,0.3404,0.3371,0.3356,0.3383,0.3333,0.3334,0.3417,0.343,0.344,0.3449,0.3314,0,0,0,0,0,0.3439,0.3443,0.3443,0.3445,0.3443,0.346,0.3458,0.3448,0.3438,0.3448,0.3423,0.3394,0.3361,0.3347,0.3338,0.3377,0.3306,0.331,0.3313,0.3419,0.3433,0.3445,0,0,0,0,0,0,0.3439,0.3442,0.3443,0.3439,0.3439,0.3458,0.3434,0.343,0.3437,0.3436,0.3399,0.3392,0.3361,0.3349,0.3341,0.338,0.3316,0.3308,0.331,0.3313,0.3424,0.3436,0.3445,0,0,0,0,0,0.344,0.3442,0.3445,0.3438,0.3438,0.343,0.3434,0.3431,0.3433,0.3395,0.3389,0.343,0.3362,0.3354,0.3344,0.3385,0.3321,0.3318,0.3309,0.3312,0.3314,0.343,0,0,0,0,0,0,0.3441,0.3428,0.3444,0.3443,0.3441,0.3429,0.3427,0.3431,0.3391,0.3386,0.3423,0.3422,0.3362,0.3356,0.335,0.3391,0.3325,0.3322,0.3321,0.3311,0.3313,0.3315,0,0,0,0,0,0,0.3427,0.3427,0.3443,0.3447,0.3446,0.3428,0.3427,0.34,0.3389,0.3418,0.3418,0.3423,0.3368,0.3357,0.3353,0.331,0.3328,0.3325,0.3324,0.3323,0.3313,0.3314,0,0,0,0,0,0,0.3426,0.3426,0.3447,0.3446,0.3445,0.343,0.3401,0.3394,0.3411,0.3419,0.3411,0.3411,0.3369,0.3364,0.3354,0.3314,0.3311,0.3328,0.3326,0.3325,0.3324,0,0,0,0,0,0,0,0.3426,0.3433,0.3456,0.3445,0.3445,0.3436,0.3435,0.3434,0.3411,0.3411,0.3411,0.3411,0.3343,0.334,0.3337,0.3317,0,0,0.3328,0.3327,0,0,0,0,0,0,0,0,0.3432,0.3432,0.3456,0.3456,0.3456,0.3436,0.3435,0.3434,0.3411,0.3411,0.3411,0.3411,0.3342,0.334,0.3337,0,0,0,0,0,0,0,0,0,0,0,0,0,0,0,0.3456,0.3456,0,0.3436,0.3435,0.3435,0.3411,0.3411,0.3411,0.3411,0.3341,0.3339,0.3337,0,0,0,0,0,0,0,0,0,0,0,0,0,0,0,0,0,0,0,0,0,0,0,0,0,0,0,0,0,0,0,0,0,0,0,0,0,0,0,0,0,0,0,0,0,0,0,0,0,0,0,0,0,0,0,0,0,0,0,0,0,0,0,0,0,0,0,0,0]}],[{"header":{"parameterUnit":"kt","parameterCategory":2,"dx":1,"dy":1,"la1":30.253999710083008,"la2":30.299108505249023,"lo1":-89.0895004272461,"lo2":-89.04439544677734,"nx":28,"ny":28,"refTime":"2022-09-27T15:00:00:Z","depth":"0","parameterNumber":3,"parameterNumberName":"V-component_of_CURRENTS"},"data":[-0.0078,0.0016,0.003,0.0159,0.0207,0.0289,0.0347,0.0402,0.0391,0.0231,-0.0011,-0.0238,-0.1126,-0.281,-0.4189,-0.4471,-0.5027,-0.5092,-0.5318,-0.4675,-0.4593,-0.4516,-0.4621,-0.5308,-0.531,-0.6335,-0.6345,-0.6353,-0.0157,-0.0129,-0.0044,0.004,0.0119,0.0129,0.0252,0.0295,0.0394,0.0373,0.0359,-0.0172,-0.0932,-0.1713,-0.2825,-0.3449,-0.3703,-0.3816,-0.4077,-0.4193,-0.3169,-0.3229,-0.363,-0.363,-0.363,-0.3629,-0.3629,-0.3628,-0.0299,-0.0246,-0.0195,-0.0114,-0.0041,0.0055,0.0118,0.0197,0.0286,0.0312,0.0275,0.0138,-0.0494,-0.1214,-0.1615,-0.2516,-0.2439,-0.2789,-0.2955,-0.3045,-0.3306,-0.2153,-0.2329,-0.2327,-0.2326,-0.2324,-0.2323,0,-0.0418,-0.0413,-0.0358,-0.0275,-0.0208,-0.0134,-0.0059,0.001,0.0016,0.0055,0.009,0.0025,-0.0368,-0.0786,-0.1293,-0.1564,-0.2191,-0.1905,-0.2311,-0.2767,-0.2954,-0.3185,-0.1963,-0.208,-0.2077,-0.2075,-0.2073,-0.2072,-0.0561,-0.0519,-0.0471,-0.0424,-0.0403,-0.0335,-0.0275,-0.0283,-0.0229,-0.022,-0.017,-0.0302,-0.0373,-0.0754,-0.114,-0.1489,-0.1804,-0.1824,-0.1878,-0.2286,-0.2511,-0.2642,-0.2813,-0.2039,-0.2043,-0.2047,-0.2049,0,-0.0636,-0.0646,-0.0573,-0.0546,-0.0529,-0.047,-0.0423,-0.0372,-0.0392,-0.0332,-0.0336,-0.0439,-0.0588,-0.082,-0.1042,-0.1242,-0.1699,-0.1532,-0.1633,-0.1689,-0.2231,-0.2402,-0.2805,-0.3032,-0.1737,-0.174,-0.1742,0,-0.0751,-0.07,-0.0706,-0.0669,-0.0582,-0.0615,-0.0535,-0.0546,-0.0545,-0.0494,-0.0624,-0.0601,-0.0813,-0.0924,-0.1104,-0.1316,-0.1268,-0.1495,-0.1541,-0.1633,-0.1648,-0.2027,-0.221,-0.1433,-0.1432,-0.1431,-0.1431,0,-0.0853,-0.0816,-0.0759,-0.0752,-0.0738,-0.0706,-0.0703,-0.0716,-0.0689,-0.0728,-0.0716,-0.0807,-0.0836,-0.0974,-0.1153,-0.1167,-0.1297,-0.134,-0.151,-0.1517,-0.1647,-0.1666,-0.2076,-0.143,-0.1429,-0.1429,-0.1429,0,-0.0952,-0.0929,-0.0861,-0.0839,-0.0827,-0.0804,-0.0783,-0.0775,-0.0805,-0.0825,-0.087,-0.0934,-0.0986,-0.1062,-0.1189,-0.1166,-0.1272,-0.1347,-0.1353,-0.1439,-0.1503,-0.1681,-0.1715,-0.2118,-0.145,-0.145,-0.145,0,-0.1048,-0.0989,-0.1013,-0.0957,-0.093,-0.098,-0.095,-0.0967,-0.1001,-0.0998,-0.1067,-0.1072,-0.1154,-0.1164,-0.1208,-0.1288,-0.1329,-0.1301,-0.142,-0.1423,-0.1489,-0.1487,-0.1604,-0.1699,-0.1445,-0.1445,-0.1446,0,-0.1126,-0.113,-0.112,-0.1105,-0.1128,-0.1117,-0.1104,-0.1106,-0.1085,-0.1137,-0.1113,-0.1162,-0.1209,-0.1221,-0.127,-0.1298,-0.1327,-0.1346,-0.1349,-0.138,-0.1397,-0.1472,-0.1483,-0.1351,-0.135,-0.135,-0.1442,0,-0.1229,-0.1208,-0.1187,-0.1181,-0.1185,-0.1167,-0.12,-0.1205,-0.1234,-0.1258,-0.1261,-0.1312,-0.1327,-0.1347,-0.1375,-0.1369,-0.1397,-0.1421,-0.1437,-0.1413,-0.146,-0.1463,-0.1445,-0.1446,-0.1447,-0.1448,0,0,-0.1308,-0.1275,-0.1309,-0.1286,-0.1281,-0.1343,-0.1312,-0.1328,-0.1352,-0.135,-0.1378,-0.1405,-0.1435,-0.1422,-0.1419,-0.144,-0.1465,-0.1424,-0.1426,-0.1424,-0.1421,-0.1464,-0.1465,-0.145,-0.145,-0.145,-0.145,0,-0.1341,-0.1351,-0.1318,-0.1329,-0.1343,-0.1364,-0.1363,-0.1388,-0.1395,-0.1396,-0.1428,-0.1448,-0.1457,-0.147,-0.1477,-0.1453,-0.1487,-0.1459,-0.1405,-0.1433,-0.143,-0.1426,-0.1467,-0.1468,-0.1453,-0.1452,-0.1452,0,-0.1404,-0.1407,-0.1396,-0.14,-0.1412,-0.1402,-0.1445,-0.1442,-0.1432,-0.1482,-0.1466,-0.1497,-0.1517,-0.1509,-0.1507,-0.1516,-0.1509,-0.1505,-0.1501,-0.1481,-0.1511,-0.1507,-0.1503,-0.1554,-0.1554,-0.1555,0,0,-0.1429,-0.1411,-0.1433,-0.1409,-0.1412,-0.1443,-0.1447,-0.1463,-0.1477,-0.1483,-0.1498,-0.1513,-0.1521,-0.1521,-0.1531,-0.1523,-0.1547,-0.1515,-0.151,-0.1506,-0.1484,-0.1513,-0.1509,-0.1555,-0.1555,-0.1555,0,0,-0.144,-0.1449,-0.1465,-0.1435,-0.1451,-0.1474,-0.1463,-0.1488,-0.1499,-0.1498,-0.1524,-0.1527,-0.1522,-0.1536,-0.1539,-0.153,-0.1554,-0.1553,-0.1511,-0.1506,-0.1501,-0.1472,-0.1559,0,0,0,0,0,-0.148,-0.1448,-0.1463,-0.1461,-0.1466,-0.147,-0.1474,-0.1492,-0.1507,-0.1502,-0.1518,-0.1531,-0.1542,-0.1545,-0.1548,-0.153,-0.156,-0.1559,-0.1558,-0.1504,-0.1498,-0.1492,0,0,0,0,0,0,-0.148,-0.1477,-0.1464,-0.1483,-0.1485,-0.1471,-0.1495,-0.1501,-0.1507,-0.151,-0.1529,-0.1531,-0.1545,-0.1545,-0.1547,-0.153,-0.1559,-0.156,-0.1559,-0.1558,-0.1502,-0.1497,-0.1492,0,0,0,0,0,-0.1479,-0.1477,-0.1474,-0.1484,-0.1486,-0.1506,-0.1496,-0.15,-0.1508,-0.1525,-0.1529,-0.1519,-0.1544,-0.1547,-0.1547,-0.1529,-0.1557,-0.1558,-0.1559,-0.1559,-0.1558,-0.1499,0,0,0,0,0,0,-0.1479,-0.1491,-0.1475,-0.1478,-0.1484,-0.1508,-0.1509,-0.15,-0.1524,-0.1527,-0.1517,-0.1518,-0.1544,-0.1546,-0.1548,-0.1527,-0.1556,-0.1557,-0.1558,-0.1559,-0.1558,-0.1558,0,0,0,0,0,0,-0.1492,-0.1492,-0.1477,-0.1475,-0.1478,-0.1509,-0.151,-0.1516,-0.1523,-0.1514,-0.1516,-0.1517,-0.1536,-0.1546,-0.1547,-0.1557,-0.1556,-0.1556,-0.1557,-0.1557,-0.1558,-0.1558,0,0,0,0,0,0,-0.1493,-0.1493,-0.1475,-0.1477,-0.1479,-0.1507,-0.1515,-0.1516,-0.1529,-0.1513,-0.153,-0.153,-0.1534,-0.1536,-0.1546,-0.1555,-0.1556,-0.1556,-0.1556,-0.1556,-0.1557,0,0,0,0,0,0,0,-0.1494,-0.1482,-0.146,-0.1478,-0.148,-0.1497,-0.1498,-0.1499,-0.1529,-0.1529,-0.1529,-0.153,-0.1552,-0.1553,-0.1553,-0.1554,0,0,-0.1556,-0.1556,0,0,0,0,0,0,0,0,-0.1483,-0.1482,-0.146,-0.146,-0.146,-0.1498,-0.1498,-0.1499,-0.1529,-0.1529,-0.1529,-0.153,-0.1552,-0.1553,-0.1553,0,0,0,0,0,0,0,0,0,0,0,0,0,0,0,-0.146,-0.146,0,-0.1498,-0.1498,-0.1499,-0.1529,-0.1529,-0.1529,-0.153,-0.1552,-0.1553,-0.1553,0,0,0,0,0,0,0,0,0,0,0,0,0,0,0,0,0,0,0,0,0,0,0,0,0,0,0,0,0,0,0,0,0,0,0,0,0,0,0,0,0,0,0,0,0,0,0,0,0,0,0,0,0,0,0,0,0,0,0,0,0,0,0,0,0,0,0,0,0]}]],[[{"header":{"parameterUnit":"kt","parameterCategory":2,"dx":1,"dy":1,"la1":30.253999710083008,"la2":30.299108505249023,"lo1":-89.0895004272461,"lo2":-89.04439544677734,"nx":28,"ny":28,"refTime":"2022-09-27T15:00:00:Z","depth":"2","parameterNumber":2,"parameterNumberName":"U-component_of_CURRENTS"},"data":[0.291,0.2939,0.2987,0.299,0.3043,0.301,0.3032,0.3036,0.3115,0.3119,0.3113,0.3311,0.352,0.3014,0.2978,0.2784,0.2879,0.2668,0.3801,0.3461,0.3497,0.3586,0.3405,0,0,0,0,0,0.2957,0.3023,0.31,0.3176,0.3193,0.3287,0.3389,0.3366,0.3422,0.3592,0.372,0.3521,0.3496,0.3592,0.3394,0.3464,0.3263,0.3346,0.3014,0.3064,0.3106,0.2946,0.263,0.2625,0.2621,0.2617,0,0,0.3073,0.3096,0.3202,0.3268,0.3345,0.341,0.3418,0.355,0.3673,0.3801,0.4079,0.4143,0.4242,0.4219,0.413,0.4046,0.434,0.4128,0.413,0.4139,0.4047,0.3997,0.4016,0.4021,0.4026,0.403,0.4033,0,0.3148,0.3201,0.3272,0.3362,0.3426,0.3495,0.3606,0.3673,0.3868,0.3989,0.4226,0.4367,0.4581,0.4503,0.4614,0.4566,0.4436,0.4394,0.4873,0.3851,0.3786,0.3768,0.3774,0.3784,0.3789,0.3792,0.3794,0.3796,0.3232,0.3265,0.3399,0.3442,0.3492,0.3572,0.3629,0.3779,0.3868,0.4115,0.4182,0.4398,0.4529,0.4755,0.4724,0.4779,0.4818,0.4476,0.4289,0.4657,0.4645,0.4625,0.4606,0.3841,0.3835,0.383,0.3827,0,0.3273,0.3361,0.3428,0.3554,0.3588,0.3631,0.376,0.3824,0.3951,0.4068,0.4108,0.4293,0.4449,0.4511,0.4611,0.46,0.4667,0.469,0.4255,0.4215,0.4596,0.458,0.4791,0.4794,0.4798,0.48,0.4803,0,0.3352,0.3394,0.3516,0.3547,0.3613,0.3701,0.3772,0.3851,0.3972,0.4052,0.4118,0.421,0.4263,0.4364,0.436,0.4474,0.4478,0.4447,0.4458,0.4068,0.4039,0.425,0.4231,0.44,0.4398,0.4397,0.4396,0,0.3365,0.3471,0.3532,0.3564,0.3676,0.3715,0.3774,0.3868,0.3927,0.4028,0.4083,0.4155,0.421,0.4243,0.4285,0.4224,0.4404,0.4319,0.4392,0.4395,0.4033,0.4003,0.4395,0.4394,0.4394,0.4394,0.4393,0,0.3411,0.3473,0.3545,0.3643,0.3664,0.3702,0.3798,0.3848,0.3936,0.3968,0.4024,0.403,0.4103,0.4043,0.4149,0.4101,0.4117,0.4128,0.4134,0.4157,0.4111,0.3858,0.3926,0.4178,0.4176,0.4174,0.4172,0,0.3409,0.3489,0.3533,0.36,0.364,0.3689,0.3737,0.3789,0.3828,0.3883,0.3899,0.3929,0.3889,0.3906,0.3947,0.3968,0.4023,0.394,0.4016,0.4018,0.4071,0.4217,0.3795,0.3905,0.4146,0.4148,0.415,0,0.3396,0.3496,0.3501,0.3539,0.36,0.3625,0.3679,0.3732,0.3775,0.3787,0.384,0.3844,0.3845,0.3838,0.3822,0.3863,0.3979,0.3832,0.3832,0.3902,0.4112,0.4172,0.4196,0.3967,0.397,0.3973,0.4129,0,0.3448,0.3478,0.3495,0.3548,0.3574,0.3604,0.3635,0.3663,0.3671,0.3682,0.372,0.37,0.371,0.3715,0.3686,0.3763,0.3756,0.372,0.3683,0.3761,0.3817,0.3835,0.3602,0.36,0.3598,0.3597,0,0,0.342,0.3454,0.3472,0.3507,0.3529,0.3542,0.3574,0.3584,0.359,0.3606,0.3585,0.3593,0.357,0.3609,0.3631,0.3611,0.3637,0.3599,0.3711,0.3724,0.3736,0.3794,0.3813,0.3593,0.3593,0.3592,0.3592,0,0.3436,0.3444,0.3465,0.3489,0.352,0.3528,0.3542,0.3553,0.3556,0.3568,0.3544,0.3557,0.3529,0.3534,0.3528,0.3584,0.3572,0.3579,0.3643,0.3694,0.371,0.3723,0.3784,0.3802,0.3587,0.3587,0.3588,0,0.3432,0.345,0.3455,0.348,0.3486,0.3513,0.3493,0.3512,0.3531,0.3478,0.3488,0.3473,0.3443,0.3459,0.3462,0.3438,0.3519,0.3463,0.3472,0.3468,0.3518,0.3536,0.3551,0.3355,0.3355,0.3354,0,0,0.3443,0.3459,0.3476,0.3481,0.3493,0.3492,0.3495,0.3497,0.349,0.3485,0.3462,0.3441,0.3434,0.3429,0.341,0.3417,0.3423,0.3439,0.345,0.3459,0.3461,0.3513,0.3529,0.3353,0.3353,0.3353,0,0,0.3442,0.3464,0.3464,0.3471,0.3487,0.3482,0.3486,0.3483,0.3471,0.3467,0.3428,0.342,0.343,0.3397,0.3382,0.3409,0.336,0.3361,0.3443,0.3456,0.3466,0.3475,0.334,0,0,0,0,0,0.3462,0.3466,0.3466,0.3468,0.3466,0.3484,0.3482,0.3473,0.3462,0.3472,0.3448,0.3419,0.3388,0.3373,0.3364,0.3403,0.3334,0.3337,0.334,0.3446,0.346,0.3472,0,0,0,0,0,0,0.3463,0.3465,0.3466,0.3463,0.3463,0.3482,0.3458,0.3455,0.3462,0.346,0.3424,0.3417,0.3387,0.3375,0.3367,0.3406,0.3342,0.3335,0.3338,0.334,0.3451,0.3462,0.3472,0,0,0,0,0,0.3464,0.3466,0.3469,0.3462,0.3462,0.3454,0.3458,0.3455,0.3457,0.342,0.3414,0.3454,0.3387,0.3379,0.337,0.3411,0.3347,0.3344,0.3337,0.3339,0.3341,0.3456,0,0,0,0,0,0,0.3464,0.3451,0.3468,0.3467,0.3464,0.3453,0.3452,0.3455,0.3416,0.3411,0.3447,0.3446,0.3387,0.3381,0.3376,0.3417,0.3351,0.3348,0.3347,0.3339,0.334,0.3342,0,0,0,0,0,0,0.345,0.345,0.3467,0.3471,0.347,0.3452,0.3451,0.3424,0.3414,0.3443,0.3442,0.3447,0.3393,0.3383,0.3378,0.3337,0.3354,0.3351,0.335,0.3348,0.334,0.3341,0,0,0,0,0,0,0.345,0.345,0.347,0.347,0.3469,0.3454,0.3426,0.3419,0.3436,0.3443,0.3436,0.3436,0.3394,0.3389,0.338,0.334,0.3338,0.3354,0.3352,0.3351,0.335,0,0,0,0,0,0,0,0.345,0.3456,0.3479,0.3469,0.3468,0.346,0.3459,0.3459,0.3436,0.3436,0.3436,0.3436,0.3368,0.3365,0.3363,0.3344,0,0,0.3354,0.3353,0,0,0,0,0,0,0,0,0.3455,0.3456,0.3479,0.3479,0.348,0.346,0.3459,0.3459,0.3436,0.3436,0.3436,0.3436,0.3367,0.3365,0.3363,0,0,0,0,0,0,0,0,0,0,0,0,0,0,0,0.3479,0.3479,0,0.346,0.346,0.3459,0.3436,0.3436,0.3436,0.3436,0.3367,0.3365,0.3363,0,0,0,0,0,0,0,0,0,0,0,0,0,0,0,0,0,0,0,0,0,0,0,0,0,0,0,0,0,0,0,0,0,0,0,0,0,0,0,0,0,0,0,0,0,0,0,0,0,0,0,0,0,0,0,0,0,0,0,0,0,0,0,0,0,0,0,0,0]}],[{"header":{"parameterUnit":"kt","parameterCategory":2,"dx":1,"dy":1,"la1":30.253999710083008,"la2":30.299108505249023,"lo1":-89.0895004272461,"lo2":-89.04439544677734,"nx":28,"ny":28,"refTime":"2022-09-27T15:00:00:Z","depth":"2","parameterNumber":3,"parameterNumberName":"V-component_of_CURRENTS"},"data":[0.003,0.0139,0.0153,0.0308,0.0326,0.0495,0.0555,0.083,0.101,0.1262,0.1299,0.131,0.0675,0.034,-0.0188,-0.0569,-0.0732,-0.0647,-0.0919,-0.0633,-0.0641,-0.1036,-0.0942,0,0,0,0,0,-0.0057,-0.006,0.0025,0.0108,0.023,0.0197,0.0322,0.0487,0.0715,0.0864,0.096,0.0757,0.0472,-0.001,-0.0547,-0.0983,-0.0932,-0.1216,-0.1022,-0.1034,-0.1046,-0.0983,-0.0921,-0.0922,-0.0923,-0.0924,0,0,-0.0228,-0.0175,-0.0124,-0.0044,0.0029,0.0125,0.0189,0.0348,0.0467,0.062,0.0493,0.0518,0.018,-0.0256,-0.0669,-0.1115,-0.1159,-0.1357,-0.1354,-0.1356,-0.1313,-0.1296,-0.1335,-0.1338,-0.1341,-0.1343,-0.1345,0,-0.0345,-0.034,-0.0285,-0.0202,-0.0136,-0.0061,0.0014,0.0083,0.009,0.015,0.0184,0.0138,-0.0146,-0.0362,-0.0826,-0.1037,-0.1322,-0.1365,-0.1563,-0.1134,-0.1107,-0.1139,-0.1145,-0.1119,-0.1121,-0.1122,-0.1123,-0.1124,-0.0486,-0.0444,-0.0395,-0.0348,-0.0328,-0.026,-0.02,-0.0207,-0.0152,-0.0144,-0.0093,-0.0226,-0.0278,-0.0659,-0.0923,-0.1239,-0.1393,-0.1384,-0.139,-0.157,-0.1607,-0.1599,-0.1593,-0.1143,-0.114,-0.1138,-0.1137,0,-0.0559,-0.0568,-0.0495,-0.0468,-0.0451,-0.0392,-0.0345,-0.0294,-0.0314,-0.0254,-0.0259,-0.0361,-0.051,-0.0741,-0.0963,-0.1162,-0.1362,-0.1451,-0.1206,-0.1224,-0.1578,-0.1575,-0.1652,-0.1655,-0.1658,-0.166,-0.1662,0,-0.0672,-0.0621,-0.0626,-0.0588,-0.0502,-0.0534,-0.0455,-0.0466,-0.0464,-0.0413,-0.0542,-0.052,-0.0731,-0.0842,-0.1022,-0.1234,-0.1186,-0.1413,-0.1458,-0.1247,-0.1238,-0.1365,-0.1366,-0.1349,-0.1348,-0.1348,-0.1347,0,-0.0772,-0.0735,-0.0677,-0.067,-0.0654,-0.0623,-0.062,-0.0632,-0.0605,-0.0645,-0.0633,-0.0724,-0.0753,-0.0891,-0.107,-0.1084,-0.1214,-0.1256,-0.1426,-0.1434,-0.1268,-0.1262,-0.1346,-0.1346,-0.1346,-0.1346,-0.1345,0,-0.0869,-0.0845,-0.0778,-0.0755,-0.0743,-0.072,-0.0698,-0.069,-0.0719,-0.074,-0.0785,-0.0849,-0.0901,-0.0977,-0.1104,-0.1081,-0.1187,-0.1262,-0.1268,-0.1353,-0.1417,-0.1281,-0.1241,-0.1366,-0.1365,-0.1365,-0.1365,0,-0.0964,-0.0904,-0.0928,-0.0872,-0.0844,-0.0893,-0.0864,-0.088,-0.0913,-0.0911,-0.098,-0.0985,-0.1067,-0.1078,-0.1121,-0.1201,-0.1242,-0.1213,-0.1333,-0.1336,-0.1402,-0.1401,-0.1172,-0.124,-0.1359,-0.136,-0.136,0,-0.1041,-0.1043,-0.1034,-0.1018,-0.1041,-0.103,-0.1017,-0.1018,-0.0998,-0.1049,-0.1025,-0.1074,-0.1122,-0.1133,-0.1181,-0.121,-0.124,-0.1258,-0.1261,-0.1293,-0.1311,-0.1387,-0.1398,-0.1263,-0.1263,-0.1263,-0.1356,0,-0.1142,-0.1122,-0.11,-0.1093,-0.1097,-0.108,-0.1112,-0.1117,-0.1146,-0.117,-0.1173,-0.1223,-0.1238,-0.1258,-0.1286,-0.128,-0.1308,-0.1331,-0.1347,-0.1323,-0.1371,-0.1374,-0.1355,-0.1356,-0.1356,-0.1357,0,0,-0.1221,-0.1188,-0.1221,-0.1198,-0.1193,-0.1253,-0.1222,-0.1239,-0.1262,-0.126,-0.1289,-0.1315,-0.1344,-0.1331,-0.1329,-0.1349,-0.1375,-0.1333,-0.1336,-0.1334,-0.1332,-0.1375,-0.1377,-0.1359,-0.1359,-0.1359,-0.136,0,-0.1253,-0.1262,-0.1229,-0.124,-0.1254,-0.1274,-0.1273,-0.1298,-0.1305,-0.1306,-0.1338,-0.1358,-0.1366,-0.1378,-0.1385,-0.1361,-0.1396,-0.1367,-0.1315,-0.1343,-0.134,-0.1337,-0.1378,-0.1379,-0.1362,-0.1362,-0.1361,0,-0.1315,-0.1318,-0.1306,-0.131,-0.1321,-0.1311,-0.1353,-0.1351,-0.1341,-0.139,-0.1375,-0.1405,-0.1425,-0.1417,-0.1415,-0.1424,-0.1418,-0.1412,-0.1409,-0.1389,-0.142,-0.1415,-0.1411,-0.1461,-0.1461,-0.1461,0,0,-0.1339,-0.1321,-0.1342,-0.1318,-0.1321,-0.1351,-0.1355,-0.1372,-0.1385,-0.1391,-0.1407,-0.1421,-0.1429,-0.1429,-0.1438,-0.143,-0.1454,-0.1422,-0.1418,-0.1414,-0.1392,-0.1421,-0.1417,-0.1462,-0.1462,-0.1462,0,0,-0.135,-0.1358,-0.1374,-0.1344,-0.1359,-0.1381,-0.1371,-0.1395,-0.1406,-0.1407,-0.1432,-0.1435,-0.143,-0.1444,-0.1447,-0.1438,-0.1461,-0.146,-0.1419,-0.1414,-0.141,-0.1381,-0.1467,0,0,0,0,0,-0.1389,-0.1357,-0.1372,-0.137,-0.1374,-0.1377,-0.1381,-0.1399,-0.1415,-0.141,-0.1426,-0.1439,-0.145,-0.1453,-0.1455,-0.1438,-0.1467,-0.1466,-0.1465,-0.1412,-0.1406,-0.1401,0,0,0,0,0,0,-0.1388,-0.1385,-0.1373,-0.139,-0.1392,-0.1378,-0.1403,-0.1408,-0.1415,-0.1418,-0.1437,-0.1439,-0.1452,-0.1453,-0.1455,-0.1438,-0.1466,-0.1467,-0.1466,-0.1465,-0.141,-0.1405,-0.1401,0,0,0,0,0,-0.1388,-0.1386,-0.1381,-0.1392,-0.1393,-0.1414,-0.1403,-0.1407,-0.1416,-0.1433,-0.1436,-0.1428,-0.1452,-0.1454,-0.1454,-0.1437,-0.1465,-0.1466,-0.1466,-0.1465,-0.1465,-0.1407,0,0,0,0,0,0,-0.1388,-0.1399,-0.1382,-0.1384,-0.1393,-0.1415,-0.1417,-0.1407,-0.1431,-0.1434,-0.1424,-0.1426,-0.1452,-0.1453,-0.1455,-0.1435,-0.1464,-0.1465,-0.1465,-0.1466,-0.1465,-0.1465,0,0,0,0,0,0,-0.14,-0.14,-0.1384,-0.1383,-0.1386,-0.1416,-0.1418,-0.1423,-0.143,-0.1421,-0.1423,-0.1424,-0.1443,-0.1453,-0.1454,-0.1463,-0.1463,-0.1464,-0.1464,-0.1465,-0.1465,-0.1465,0,0,0,0,0,0,-0.1401,-0.1401,-0.1383,-0.1385,-0.1387,-0.1414,-0.1422,-0.1422,-0.1436,-0.142,-0.1437,-0.1437,-0.1442,-0.1444,-0.1454,-0.1461,-0.1462,-0.1463,-0.1464,-0.1464,-0.1464,0,0,0,0,0,0,0,-0.1402,-0.1391,-0.1367,-0.1386,-0.1388,-0.1404,-0.1405,-0.1405,-0.1436,-0.1437,-0.1437,-0.1437,-0.146,-0.1461,-0.1461,-0.146,0,0,-0.1463,-0.1464,0,0,0,0,0,0,0,0,-0.1392,-0.1391,-0.1367,-0.1367,-0.1368,-0.1404,-0.1405,-0.1405,-0.1436,-0.1437,-0.1437,-0.1437,-0.146,-0.1461,-0.1461,0,0,0,0,0,0,0,0,0,0,0,0,0,0,0,-0.1367,-0.1367,0,-0.1404,-0.1405,-0.1405,-0.1436,-0.1437,-0.1437,-0.1437,-0.146,-0.1461,-0.1461,0,0,0,0,0,0,0,0,0,0,0,0,0,0,0,0,0,0,0,0,0,0,0,0,0,0,0,0,0,0,0,0,0,0,0,0,0,0,0,0,0,0,0,0,0,0,0,0,0,0,0,0,0,0,0,0,0,0,0,0,0,0,0,0,0,0,0,0,0]}]],[[{"header":{"parameterUnit":"kt","parameterCategory":2,"dx":1,"dy":1,"la1":30.253999710083008,"la2":30.299108505249023,"lo1":-89.0895004272461,"lo2":-89.04439544677734,"nx":28,"ny":28,"refTime":"2022-09-27T15:00:00:Z","depth":"4","parameterNumber":2,"parameterNumberName":"U-component_of_CURRENTS"},"data":[0.1996,0.2092,0.2133,0.2148,0.2186,0.2296,0.2385,0.251,0.2473,0.2655,0.2683,0.2825,0.2902,0.3045,0.2988,0.3016,0.2954,0.3292,0.3284,0.3295,0.3313,0.3329,0.3211,0,0,0,0,0,0.2045,0.2084,0.2184,0.2283,0.2405,0.2485,0.2633,0.272,0.2891,0.2833,0.2931,0.2996,0.3033,0.3132,0.3043,0.33,0.3318,0.3184,0.318,0.3306,0.3326,0.3204,0,0,0,0,0,0,0.2119,0.2163,0.2308,0.2412,0.2547,0.2598,0.2691,0.2756,0.2837,0.3057,0.3071,0.3246,0.3398,0.336,0.3388,0.3355,0.3286,0.315,0.3177,0.3198,0.3075,0.2979,0.2854,0,0,0,0,0,0.2176,0.2279,0.2372,0.2521,0.2635,0.2738,0.2876,0.29,0.309,0.3268,0.3305,0.3343,0.3436,0.3462,0.3485,0.3467,0.3593,0.3537,0.3545,0.3433,0.3389,0.3369,0.3371,0.3403,0.3405,0.3407,0.3408,0,0.2259,0.2314,0.2525,0.2596,0.2688,0.2831,0.2919,0.3097,0.3165,0.34,0.3424,0.3588,0.3667,0.3597,0.3689,0.3674,0.3627,0.3591,0.3472,0.3421,0.3397,0.3394,0.339,0.3424,0.3423,0.3421,0.342,0,0.2302,0.2419,0.2527,0.2706,0.2769,0.285,0.3039,0.3115,0.328,0.3397,0.3452,0.3611,0.3695,0.3759,0.3817,0.3709,0.369,0.3643,0.3805,0.3788,0.3425,0.3415,0.3451,0.3445,0.344,0.3436,0.3432,0,0.2388,0.2463,0.2634,0.268,0.279,0.2902,0.303,0.3129,0.3273,0.3358,0.3486,0.3557,0.3646,0.3712,0.371,0.3664,0.3787,0.3547,0.3524,0.3656,0.3646,0.3622,0.3606,0.3748,0.3747,0.3746,0.3746,0,0.2409,0.2552,0.2641,0.2685,0.2831,0.2906,0.2993,0.3129,0.3204,0.3357,0.3431,0.3529,0.3599,0.3632,0.3662,0.3632,0.374,0.3689,0.3527,0.3515,0.3612,0.3598,0.3745,0.3745,0.3745,0.3745,0.3744,0,0.2464,0.2539,0.2645,0.2769,0.2802,0.2874,0.301,0.3087,0.3216,0.3281,0.3376,0.3419,0.351,0.3474,0.3568,0.3539,0.3548,0.3551,0.3554,0.3345,0.3278,0.3424,0.3557,0.3555,0.3554,0.3552,0.3551,0,0.2447,0.2553,0.2614,0.2717,0.2772,0.2852,0.2928,0.3017,0.3097,0.3189,0.324,0.3324,0.3314,0.3362,0.3401,0.3425,0.3467,0.341,0.3444,0.3444,0.3264,0.3343,0.3442,0.3528,0.3531,0.3533,0.3535,0,0.2416,0.2548,0.2567,0.2619,0.2725,0.2764,0.2858,0.2944,0.3015,0.3092,0.3176,0.3242,0.3274,0.3287,0.3298,0.3333,0.343,0.3314,0.3314,0.3342,0.3527,0.3339,0.3334,0.343,0.3432,0.3434,0.3519,0,0.2427,0.2501,0.2537,0.2623,0.2674,0.2737,0.2796,0.2864,0.2923,0.2964,0.3066,0.3089,0.3147,0.3167,0.3158,0.3249,0.3237,0.3208,0.3159,0.3243,0.3267,0.328,0.31,0.3098,0.3097,0.3095,0,0,0.2375,0.2445,0.2494,0.2547,0.2594,0.2647,0.2701,0.2746,0.2824,0.2866,0.2876,0.2974,0.2988,0.3056,0.3093,0.3091,0.3109,0.3088,0.3197,0.3209,0.3219,0.3247,0.3261,0.3092,0.3092,0.3091,0.3091,0,0.2357,0.2422,0.2473,0.2516,0.2594,0.2618,0.265,0.2711,0.2758,0.2827,0.2842,0.29,0.2945,0.2966,0.2976,0.3063,0.3049,0.3081,0.3142,0.3182,0.3196,0.3208,0.3238,0.3252,0.3087,0.3087,0.3087,0,0.2322,0.2368,0.2403,0.2476,0.2519,0.2565,0.2573,0.2643,0.2691,0.2682,0.2774,0.2796,0.2804,0.2866,0.2898,0.2871,0.2988,0.2945,0.2953,0.295,0.2987,0.3004,0.3018,0.2832,0.2831,0.2831,0,0,0.2308,0.2366,0.2413,0.2472,0.25,0.2546,0.2581,0.2615,0.2657,0.2686,0.2717,0.275,0.278,0.2808,0.2828,0.2876,0.2871,0.2916,0.2928,0.2938,0.2941,0.298,0.2996,0.2829,0.2829,0.2828,0,0,0.2292,0.2358,0.2386,0.2451,0.2497,0.2527,0.2575,0.2601,0.2656,0.2682,0.2684,0.2692,0.2768,0.2756,0.2727,0.2824,0.2771,0.2777,0.2841,0.2855,0.2867,0.2866,0.2695,0,0,0,0,0,0.2301,0.2345,0.237,0.2387,0.2467,0.2511,0.2522,0.2573,0.26,0.2635,0.2671,0.2659,0.2744,0.2718,0.2721,0.2777,0.2799,0.2804,0.2809,0.2902,0.2918,0.2931,0,0,0,0,0,0,0.2308,0.2326,0.2368,0.2399,0.2419,0.2509,0.2515,0.2529,0.2598,0.2607,0.2652,0.2658,0.2651,0.2715,0.2718,0.2773,0.2694,0.2801,0.2806,0.281,0.2908,0.292,0.2931,0,0,0,0,0,0.2313,0.2328,0.2452,0.2399,0.2415,0.2486,0.2516,0.2528,0.2591,0.2599,0.261,0.2638,0.2649,0.2655,0.2717,0.2772,0.2692,0.2693,0.2804,0.2808,0.2811,0.2914,0,0,0,0,0,0,0.2317,0.2325,0.2456,0.2462,0.2412,0.2484,0.2499,0.2527,0.2581,0.2593,0.2579,0.2584,0.2647,0.2653,0.2657,0.2774,0.269,0.2691,0.2692,0.2807,0.2809,0.2812,0,0,0,0,0,0,0.2318,0.233,0.2459,0.2473,0.2482,0.2482,0.2495,0.2504,0.258,0.2556,0.2563,0.2581,0.2642,0.265,0.2654,0.2665,0.2688,0.2689,0.269,0.2691,0.2809,0.2811,0,0,0,0,0,0,0.2324,0.2334,0.2472,0.2478,0.2485,0.2555,0.2489,0.2569,0.2599,0.2552,0.2604,0.2606,0.2639,0.2644,0.2652,0.266,0.2664,0.2688,0.2689,0.269,0.269,0,0,0,0,0,0,0,0.2328,0.2252,0.2425,0.2482,0.2488,0.2521,0.2522,0.2524,0.26,0.2601,0.2603,0.2605,0.2681,0.2682,0.2684,0.2657,0,0,0.2688,0.2689,0,0,0,0,0,0,0,0,0.2248,0.2251,0.2426,0.2427,0.2429,0.2522,0.2522,0.2523,0.26,0.2601,0.2603,0.2604,0.2681,0.2682,0.2684,0,0,0,0,0,0,0,0,0,0,0,0,0,0,0,0.2426,0.2427,0,0.2522,0.2522,0.2523,0.26,0.2601,0.2602,0.2604,0.2682,0.2682,0.2683,0,0,0,0,0,0,0,0,0,0,0,0,0,0,0,0,0,0,0,0,0,0,0,0,0,0,0,0,0,0,0,0,0,0,0,0,0,0,0,0,0,0,0,0,0,0,0,0,0,0,0,0,0,0,0,0,0,0,0,0,0,0,0,0,0,0,0,0,0]}],[{"header":{"parameterUnit":"kt","parameterCategory":2,"dx":1,"dy":1,"la1":30.253999710083008,"la2":30.299108505249023,"lo1":-89.0895004272461,"lo2":-89.04439544677734,"nx":28,"ny":28,"refTime":"2022-09-27T15:00:00:Z","depth":"4","parameterNumber":3,"parameterNumberName":"V-component_of_CURRENTS"},"data":[0.0818,0.0876,0.0896,0.0979,0.1028,0.1105,0.1149,0.115,0.1137,0.1112,0.0945,0.0856,0.0537,0.0698,0.022,0.0151,0.0058,-0.0292,-0.0297,-0.043,-0.0428,-0.0426,-0.0343,0,0,0,0,0,0.0808,0.084,0.0894,0.0953,0.1022,0.1061,0.1118,0.1126,0.113,0.1108,0.1062,0.0895,0.0573,0.0433,0.0217,0.0123,-0.0169,-0.0136,-0.0243,-0.0428,-0.0426,-0.0347,0,0,0,0,0,0,0.0791,0.082,0.0864,0.0913,0.0978,0.1037,0.1054,0.1069,0.1079,0.1035,0.1021,0.0814,0.0682,0.0363,0.0156,-0.0061,-0.0118,-0.0175,-0.0186,-0.0186,-0.0087,-0.0015,-0.0043,0,0,0,0,0,0.0762,0.0783,0.0812,0.0873,0.091,0.096,0.0993,0.1018,0.1001,0.098,0.0927,0.0756,0.0573,0.0313,0.0075,-0.013,-0.0296,-0.0361,-0.0362,-0.0351,-0.0322,-0.0336,-0.0326,-0.0416,-0.0416,-0.0416,-0.0416,0,0.073,0.075,0.079,0.0817,0.0821,0.0852,0.0878,0.0857,0.0873,0.0835,0.0844,0.0692,0.059,0.0292,0.0069,-0.0226,-0.0264,-0.0354,-0.0342,-0.0317,-0.0333,-0.0323,-0.0314,-0.0414,-0.0414,-0.0414,-0.0414,0,0.0714,0.0711,0.0742,0.0747,0.0757,0.0777,0.079,0.08,0.0763,0.0766,0.0749,0.0624,0.0465,0.0264,0.0042,-0.007,-0.0238,-0.0298,-0.0219,-0.0239,-0.0315,-0.0307,-0.0411,-0.0411,-0.0412,-0.0412,-0.0413,0,0.067,0.0691,0.0685,0.0697,0.0732,0.0697,0.0721,0.0694,0.0658,0.0664,0.0551,0.053,0.0332,0.0212,0.0065,-0.0102,-0.0111,-0.0221,-0.0248,-0.0186,-0.0178,-0.0205,-0.0199,-0.0249,-0.0248,-0.0248,-0.0247,0,0.064,0.0636,0.0657,0.0654,0.0641,0.0647,0.0637,0.0593,0.0592,0.052,0.0509,0.0388,0.0339,0.0205,0.0053,0.0054,-0.0115,-0.013,-0.0216,-0.0217,-0.0198,-0.0193,-0.0246,-0.0245,-0.0245,-0.0245,-0.0244,0,0.0592,0.0593,0.0606,0.0609,0.0606,0.0601,0.0589,0.0572,0.0511,0.048,0.0411,0.0345,0.0261,0.022,0.0066,0.0103,0.0009,-0.0061,-0.0067,-0.0071,-0.0087,-0.0108,-0.0146,-0.0145,-0.0143,-0.0142,-0.0141,0,0.0581,0.0579,0.0551,0.0558,0.0558,0.052,0.0515,0.048,0.0436,0.0401,0.0327,0.0284,0.023,0.0203,0.0144,0.0063,0.0004,0.006,-0.0074,-0.0078,-0.0063,-0.0097,0.0002,-0.0123,-0.0125,-0.0127,-0.0128,0,0.0565,0.0532,0.0532,0.0536,0.049,0.0475,0.0458,0.0426,0.0418,0.0351,0.0328,0.0255,0.0211,0.0186,0.014,0.0092,0.0027,0.0061,0.0058,0.0019,-0.0086,-0.0078,-0.0088,0.0008,0.0007,0.0006,-0.0116,0,0.0548,0.0535,0.0526,0.0493,0.0472,0.0455,0.0412,0.0393,0.036,0.0322,0.0275,0.022,0.0173,0.0147,0.0124,0.0079,0.006,0.0052,0.0048,0.0036,-0.0017,-0.0027,0.0082,0.0081,0.0081,0.0081,0,0,0.0552,0.0526,0.0481,0.0465,0.045,0.0397,0.0389,0.036,0.0305,0.0291,0.0272,0.0191,0.0158,0.0122,0.0111,0.0095,0.0061,0.0096,0.0045,0.0041,0.0038,-0.0013,-0.0022,0.008,0.008,0.008,0.008,0,0.0537,0.0503,0.049,0.0463,0.0416,0.0387,0.0379,0.0322,0.0303,0.0273,0.024,0.0201,0.0158,0.0127,0.0108,0.0094,0.0057,0.0079,0.0092,0.0044,0.0041,0.0037,-0.0013,-0.002,0.0079,0.0079,0.0079,0,0.053,0.0494,0.0479,0.0424,0.0392,0.0372,0.0336,0.0303,0.029,0.025,0.0227,0.0191,0.0155,0.0127,0.0113,0.0111,0.0053,0.008,0.0081,0.0086,0.0036,0.0033,0.003,0.0071,0.0071,0.0071,0,0,0.0523,0.0499,0.0441,0.0416,0.0399,0.0349,0.0327,0.0301,0.0264,0.0251,0.0221,0.0189,0.016,0.0146,0.0119,0.0097,0.0068,0.0081,0.0081,0.0082,0.0087,0.0038,0.0035,0.0072,0.0072,0.0072,0,0,0.0516,0.0453,0.0437,0.0404,0.0366,0.0308,0.0295,0.0269,0.0242,0.024,0.0206,0.0198,0.0171,0.0153,0.0164,0.0113,0.0109,0.0106,0.013,0.013,0.0131,0.0145,0.0143,0,0,0,0,0,0.0475,0.0461,0.0447,0.0434,0.0361,0.0316,0.0307,0.0268,0.0256,0.025,0.0223,0.0208,0.0149,0.0159,0.0152,0.0139,0.0079,0.0078,0.0076,0.0101,0.0102,0.0102,0,0,0,0,0,0,0.047,0.0455,0.0447,0.0389,0.0371,0.0316,0.0295,0.0284,0.0256,0.0253,0.0213,0.0207,0.0186,0.0161,0.0155,0.0143,0.0145,0.0078,0.0077,0.0076,0.0102,0.0102,0.0102,0,0,0,0,0,0.0465,0.0453,0.0345,0.0388,0.0373,0.0318,0.0295,0.0286,0.0266,0.0225,0.0218,0.0238,0.0187,0.018,0.0157,0.0146,0.0149,0.0147,0.0078,0.0077,0.0076,0.0102,0,0,0,0,0,0,0.0462,0.0449,0.0341,0.0335,0.0389,0.032,0.0309,0.0288,0.024,0.0232,0.0249,0.0247,0.0187,0.0182,0.0176,0.0149,0.0153,0.015,0.0149,0.0077,0.0076,0.0076,0,0,0,0,0,0,0.0455,0.0445,0.0338,0.0341,0.0335,0.0323,0.0312,0.029,0.0241,0.0268,0.0264,0.0249,0.0198,0.0183,0.0179,0.0146,0.0155,0.0153,0.0152,0.0151,0.0076,0.0076,0,0,0,0,0,0,0.045,0.0441,0.0343,0.0338,0.0333,0.0263,0.0304,0.0234,0.0231,0.0272,0.023,0.023,0.02,0.0195,0.018,0.0149,0.0147,0.0155,0.0154,0.0153,0.0152,0,0,0,0,0,0,0,0.0446,0.0517,0.0374,0.0336,0.0331,0.0277,0.0276,0.0275,0.0231,0.0231,0.023,0.023,0.0167,0.0165,0.0162,0.0153,0,0,0.0155,0.0154,0,0,0,0,0,0,0,0,0.052,0.0518,0.0374,0.0372,0.0371,0.0277,0.0276,0.0275,0.0231,0.0231,0.023,0.023,0.0166,0.0165,0.0163,0,0,0,0,0,0,0,0,0,0,0,0,0,0,0,0.0374,0.0372,0,0.0277,0.0276,0.0275,0.0231,0.0231,0.023,0.023,0.0166,0.0164,0.0163,0,0,0,0,0,0,0,0,0,0,0,0,0,0,0,0,0,0,0,0,0,0,0,0,0,0,0,0,0,0,0,0,0,0,0,0,0,0,0,0,0,0,0,0,0,0,0,0,0,0,0,0,0,0,0,0,0,0,0,0,0,0,0,0,0,0,0,0,0]}]]]